GW6983 Weather Reports


time (UTC)temp
C
wind
direction
speed
KPH
gust
KPH
rain 1hr
cm
rain 24hr
cm
rain mn
cm
humidity
%
barometer
mb
20260503193025 16 12 3.2 8.0 0.00 0.00 0.00 67 1013.7
20260503192504 16 9 1.6 6.4 0.00 0.00 0.00 66 1013.7
20260503192007 16 159 1.6 6.4 0.00 0.00 0.00 66 1013.7
20260503191538 16 107 0.0 6.4 0.00 0.00 0.00 68 1013.7
20260503191007 16 66 1.6 3.2 0.00 0.00 0.00 67 1013.7
20260503190508 15 30 1.6 4.8 0.00 0.00 0.00 68 1013.7
20260503190031 15 351 1.6 4.8 0.00 0.00 0.00 68 1013.8
20260503185510 15 61 0.0 4.8 0.00 0.00 0.00 70 1013.8
20260503185009 15 31 1.6 4.8 0.00 0.00 0.00 71 1013.8
20260503184525 15 123 1.6 3.2 0.00 0.00 0.00 72 1013.8
20260503184011 14 10 1.6 8.0 0.00 0.00 0.00 73 1013.8
20260503183512 14 11 1.6 8.0 0.00 0.00 0.00 73 1013.8
20260503183029 14 9 0.0 3.2 0.00 0.00 0.00 75 1013.9
20260503182509 14 336 0.0 6.4 0.00 0.00 0.00 75 1013.8
20260503182012 14 59 1.6 6.4 0.00 0.00 0.00 74 1013.9
20260503181515 14 344 1.6 4.8 0.00 0.00 0.00 75 1013.8
20260503181008 14 34 1.6 4.8 0.00 0.00 0.00 73 1013.8
20260503180507 15 14 1.6 4.8 0.00 0.00 0.00 72 1013.7
20260503180027 15 360 1.6 11.3 0.00 0.00 0.00 73 1013.7
20260503175511 15 61 1.6 11.3 0.00 0.00 0.00 73 1013.6
20260503175006 15 117 0.0 6.4 0.00 0.00 0.00 71 1013.6
20260503174526 15 198 1.6 6.4 0.00 0.00 0.00 72 1013.5
20260503174012 15 173 0.0 6.4 0.00 0.00 0.00 76 1013.5
20260503173509 14 157 1.6 6.4 0.00 0.00 0.00 76 1013.5
20260503173027 14 136 1.6 6.4 0.00 0.00 0.00 77 1013.6
20260503172508 14 155 1.6 6.4 0.00 0.00 0.00 76 1013.5
20260503172015 14 140 1.6 4.8 0.00 0.00 0.00 76 1013.6
20260503171528 14 192 0.0 8.0 0.00 0.00 0.00 75 1013.7
20260503171008 14 208 3.2 8.0 0.00 0.00 0.00 75 1013.5
20260503170507 14 130 1.6 6.4 0.00 0.00 0.00 75 1013.6
20260503151012 12 156 0.0 3.2 0.00 0.00 0.00 79 1012.9
20260503150504 12 176 0.0 3.2 0.00 0.00 0.00 79 1012.8
20260503131006 12 316 0.0 4.8 0.00 0.00 0.00 80 1011.6
20260503130503 12 255 0.0 4.8 0.00 0.00 0.00 80 1011.5
20260503110510 12 103 0.0 3.2 0.00 0.00 0.00 81 1011.6
20260503043036 12 139 1.6 8.0 0.00 0.00 0.00 80 1012.8
20260503042507 12 178 1.6 8.0 0.00 0.00 0.00 80 1012.7
20260503042012 12 180 0.0 3.2 0.00 0.00 0.00 80 1012.6
20260503041525 12 171 0.0 3.2 0.00 0.00 0.00 80 1012.6
20260503041008 12 144 0.0 3.2 0.00 0.00 0.00 80 1012.6
20260503040514 12 113 0.0 4.8 0.00 0.00 0.00 80 1012.6
20260503040029 12 186 0.0 4.8 0.00 0.00 0.00 80 1012.6
20260503035508 12 161 0.0 4.8 0.00 0.00 0.00 80 1012.7
20260503035009 12 157 1.6 4.8 0.00 0.00 0.00 80 1012.6
20260503034526 12 126 1.6 3.2 0.00 0.00 0.00 80 1012.5
20260503034008 12 62 1.6 4.8 0.00 0.00 0.00 80 1012.5
20260503033509 12 177 0.0 4.8 0.00 0.00 0.00 80 1012.4
20260503033030 12 146 0.0 3.2 0.00 0.00 0.00 80 1012.4
20260503032508 12 119 0.0 3.2 0.00 0.00 0.00 80 1012.4
20260503032012 12 360 0.0 3.2 0.00 0.00 0.00 80 1012.2
20260503031513 12 117 1.6 4.8 0.00 0.00 0.00 80 1012.1
20260503031010 12 320 1.6 4.8 0.00 0.00 0.00 80 1012.0
20260503030507 12 160 1.6 6.4 0.00 0.00 0.00 80 1011.9
20260503030013 12 161 1.6 6.4 0.00 0.00 0.00 80 1011.8
20260503025504 12 338 1.6 4.8 0.00 0.00 0.00 80 1011.9
20260503025008 12 37 1.6 6.4 0.00 0.00 0.00 80 1011.9
20260503024514 12 144 1.6 6.4 0.00 0.00 0.00 80 1011.9
20260503024007 12 22 1.6 8.0 0.00 0.00 0.00 79 1011.9
20260503023510 13 147 3.2 8.0 0.00 0.00 0.00 78 1011.9
20260503023028 13 36 1.6 6.4 0.00 0.00 0.00 78 1011.9
20260503022506 13 149 0.0 6.4 0.00 0.00 0.00 78 1011.9
20260503022008 13 150 0.0 4.8 0.00 0.00 0.00 78 1012.0
20260503021512 13 80 1.6 6.4 0.00 0.00 0.00 78 1012.0
20260503021008 13 43 1.6 6.4 0.00 0.00 0.00 78 1011.9
20260503020505 13 325 1.6 4.8 0.00 0.00 0.00 77 1012.0
20260503020010 13 99 1.6 4.8 0.00 0.00 0.00 77 1011.9
20260503015512 13 142 0.0 4.8 0.00 0.00 0.00 77 1012.0
20260503015010 13 123 1.6 4.8 0.00 0.00 0.00 77 1012.0
20260503014510 13 129 0.0 8.0 0.00 0.00 0.00 76 1012.1
20260503014011 13 160 1.6 11.3 0.00 0.00 0.00 75 1012.1
20260503013510 13 108 0.0 11.3 0.00 0.00 0.00 75 1012.1
20260503013036 13 45 0.0 4.8 0.00 0.00 0.00 76 1012.2
20260503012511 13 349 1.6 6.4 0.00 0.00 0.00 75 1012.2
20260503012010 13 139 0.0 6.4 0.00 0.00 0.00 74 1012.3
20260503011520 14 325 1.6 6.4 0.00 0.00 0.00 73 1012.3
20260503011009 14 105 1.6 6.4 0.00 0.00 0.00 72 1012.3
20260503010506 14 194 1.6 6.4 0.00 0.00 0.00 72 1012.3
20260503010029 14 123 1.6 6.4 0.00 0.00 0.00 71 1012.5
20260503005507 14 148 1.6 11.3 0.00 0.00 0.00 70 1012.4
20260503005007 14 46 3.2 11.3 0.00 0.00 0.00 69 1012.4
20260503004516 15 352 1.6 8.0 0.00 0.00 0.00 70 1012.4
20260503004012 15 296 1.6 8.0 0.00 0.00 0.00 70 1012.4
20260503003503 15 47 1.6 9.7 0.00 0.00 0.00 70 1012.5
20260503003042 15 153 1.6 9.7 0.00 0.00 0.00 70 1012.5
20260503002507 15 162 1.6 8.0 0.00 0.00 0.00 70 1012.5
20260503002010 15 24 3.2 8.0 0.00 0.00 0.00 69 1012.6
20260503001533 15 150 3.2 6.4 0.00 0.00 0.00 68 1012.6
20260503001011 15 121 1.6 4.8 0.00 0.00 0.00 68 1012.5
20260503000507 15 339 1.6 6.4 0.00 0.00 0.00 68 1012.5
20260503000026 15 17 1.6 8.0 0.00 0.00 0.00 67 1012.5
20260502235509 16 29 1.6 8.0 0.00 0.00 0.00 67 1012.6
20260502235007 16 360 1.6 8.0 0.00 0.00 0.00 68 1012.7
20260502234537 15 44 1.6 9.7 0.00 0.00 0.00 68 1012.7
20260502234010 16 84 3.2 9.7 0.00 0.00 0.00 67 1012.8
20260502233512 16 159 1.6 11.3 0.00 0.00 0.00 68 1012.7
20260502233037 16 9 1.6 12.9 0.00 0.00 0.00 67 1012.7
20260502232511 16 17 3.2 12.9 0.00 0.00 0.00 66 1012.8
20260502232007 16 142 3.2 12.9 0.00 0.00 0.00 67 1012.8
20260502231529 16 46 1.6 6.4 0.00 0.00 0.00 67 1012.9
20260502231012 16 352 1.6 6.4 0.00 0.00 0.00 66 1013.0
20260502230509 16 13 3.2 6.4 0.00 0.00 0.00 66 1013.0
20260502230033 16 9 1.6 4.8 0.00 0.00 0.00 67 1013.2
20260502225506 16 97 1.6 4.8 0.00 0.00 0.00 67 1013.2
20260502225010 16 319 1.6 4.8 0.00 0.00 0.00 66 1013.3
20260502224526 16 349 1.6 6.4 0.00 0.00 0.00 65 1013.3
20260502224013 16 130 0.0 6.4 0.00 0.00 0.00 66 1013.4
20260502223509 16 142 1.6 8.0 0.00 0.00 0.00 67 1013.5
20260502223036 16 146 3.2 8.0 0.00 0.00 0.00 67 1013.6
20260502222509 16 350 1.6 8.0 0.00 0.00 0.00 66 1013.6
20260502222011 16 163 1.6 6.4 0.00 0.00 0.00 68 1013.7
20260502221528 16 19 1.6 4.8 0.00 0.00 0.00 65 1013.7
20260502221011 16 90 1.6 8.0 0.00 0.00 0.00 66 1013.8
20260502220512 16 38 1.6 8.0 0.00 0.00 0.00 67 1013.8
20260502220026 16 99 1.6 8.0 0.00 0.00 0.00 67 1013.8
20260502215513 15 17 3.2 6.4 0.00 0.00 0.00 68 1013.8
20260502215010 16 34 1.6 6.4 0.00 0.00 0.00 69 1013.9
20260502214523 16 310 3.2 4.8 0.00 0.00 0.00 68 1013.9
20260502214007 15 352 0.0 4.8 0.00 0.00 0.00 70 1014.0
20260502213511 15 31 1.6 4.8 0.00 0.00 0.00 69 1014.0
20260502213028 15 352 1.6 6.4 0.00 0.00 0.00 69 1014.0
20260502212509 15 151 1.6 6.4 0.00 0.00 0.00 69 1014.0
20260502212009 15 22 1.6 9.7 0.00 0.00 0.00 69 1013.9
20260502211512 15 64 1.6 9.7 0.00 0.00 0.00 70 1014.0
20260502211007 15 351 1.6 8.0 0.00 0.00 0.00 69 1014.1
20260502210505 15 165 1.6 8.0 0.00 0.00 0.00 70 1014.1
20260502210011 15 161 1.6 9.7 0.00 0.00 0.00 69 1014.2
20260502205506 15 171 1.6 9.7 0.00 0.00 0.00 69 1014.2
20260502205007 15 148 1.6 11.3 0.00 0.00 0.00 70 1014.2
20260502204514 15 141 1.6 11.3 0.00 0.00 0.00 70 1014.4
20260502204007 15 175 3.2 6.4 0.00 0.00 0.00 70 1014.3
20260502203511 15 178 1.6 9.7 0.00 0.00 0.00 71 1014.4
20260502203014 15 190 3.2 9.7 0.00 0.00 0.00 71 1014.6
20260502202510 15 141 3.2 11.3 0.00 0.00 0.00 71 1014.5
20260502202007 15 151 3.2 11.3 0.00 0.00 0.00 71 1014.5
20260502201515 15 92 3.2 8.0 0.00 0.00 0.00 72 1014.6
20260502201008 15 193 3.2 11.3 0.00 0.00 0.00 72 1014.8
20260502200509 15 138 3.2 11.3 0.00 0.00 0.00 72 1014.7
20260502200013 14 178 1.6 6.4 0.00 0.00 0.00 73 1014.7
20260502195508 14 105 1.6 6.4 0.00 0.00 0.00 74 1014.7
20260502195006 14 237 1.6 6.4 0.00 0.00 0.00 76 1014.7
20260502194532 14 190 1.6 9.7 0.00 0.00 0.00 76 1014.7
20260502194007 14 152 1.6 6.4 0.00 0.00 0.00 76 1014.7
20260502193507 14 202 0.0 6.4 0.00 0.00 0.00 76 1014.8